Home   Weather   Middlesbrough   Past weeks

Flag for United Kingdom Past Weather in Middlesbrough, England, United Kingdom — Yesterday and Last 2 Weeks

Now
43 °F

Passing clouds.


Feels Like: 36 °F
Forecast: N/A
Wind: 14 mph from South

Location: Tees-Side

Current Time: Jan 24, 2017 at 11:37:32 pm

Latest Report: Jan 24, 2017 at 9:50 pm


Visibility: 4 mi

Pressure: 30.24 "Hg

Humidity: 87%

Dew Point: 39 °F

Location of MiddlesbroughLocation

Past Weather in Middlesbrough — Graph

°F

Middlesbrough Temperature Yesterday

Maximum temperature yesterday: 41 °F (at 2:20 pm)
Minimum temperature yesterday: 27 °F (at 8:20 am)
Average temperature yesterday: 35 °F

High & Low Weather Summary for the Past Weeks

 TemperatureHumidityPressure
High50 °F (Jan 15, 12:50 pm)100% (Jan 15, 5:50 am)30.63 "Hg (Jan 15, 5:50 am)
Low27 °F (Jan 23, 8:20 am)58% (Jan 11, 5:50 am)29.39 "Hg (Jan 12, 5:50 pm)
Average40 °F84%30.17 "Hg
* Reported Jan 9 9:20 pm — Jan 24 9:50 pm, Middlesbrough, Weather by CustomWeather, © 2017

Note: Actual official high and low records may vary slightly from our data, if they occured in-between our weather recording intervals... More about our weather records

Advertising

Middlesbrough Weather History for the Previous 24 Hours

Scroll right to see more
 ConditionsComfort  
Time TempWeatherWind HumidityBarometerVisibility
9:50 pm
Tue, Jan 24
43 °FPassing clouds.14 mph87%30.24 "Hg4 mi
9:20 pm43 °FPassing clouds.12 mph93%30.24 "Hg4 mi
8:50 pm43 °FPartly cloudy.14 mph93%30.24 "Hg4 mi
8:20 pm43 °FPartly cloudy.14 mph87%30.24 "Hg4 mi
7:50 pm43 °FPassing clouds.13 mph87%30.24 "Hg4 mi
7:20 pm43 °FPassing clouds.13 mph87%30.24 "Hg4 mi
6:50 pm43 °FPassing clouds.9 mph87%30.24 "Hg4 mi
6:20 pm41 °FPassing clouds.12 mph93%30.21 "Hg4 mi
5:50 pm41 °FPassing clouds.9 mph93%30.24 "Hg4 mi
5:20 pm41 °FPassing clouds.10 mph87%30.24 "Hg4 mi
4:50 pm41 °FHaze.12 mph87%30.21 "Hg2 mi
4:20 pm41 °FHaze.10 mph87%30.24 "Hg3 mi
3:50 pm41 °FHaze.12 mph87%30.21 "Hg3 mi
3:20 pm41 °FPartly sunny.13 mph87%30.24 "Hg4 mi
2:50 pm41 °FPartly sunny.13 mph87%30.21 "Hg4 mi
2:20 pm41 °FScattered clouds.12 mph87%30.21 "Hg4 mi
1:50 pm41 °FPassing clouds.14 mph87%30.21 "Hg5 mi
1:20 pm41 °FPassing clouds.13 mph87%30.21 "Hg4 mi
12:50 pm41 °FHaze.14 mph87%30.24 "Hg3 mi
12:20 pm39 °FHaze.14 mph87%30.24 "Hg3 mi
11:50 am37 °FHaze.12 mph93%30.24 "Hg3 mi
11:20 am36 °FHaze.14 mph93%30.24 "Hg3 mi
10:50 am34 °FHaze.13 mph93%30.27 "Hg3 mi
10:20 am34 °FHaze.12 mph93%30.24 "Hg3 mi
9:50 am36 °FHaze.13 mph87%30.24 "Hg3 mi
9:20 am34 °FHaze.14 mph93%30.24 "Hg3 mi
8:50 am32 °FHaze.9 mph93%30.24 "Hg2 mi
8:20 am32 °FHaze.7 mph87%30.24 "Hg2 mi
7:50 am30 °FHaze.12 mph93%30.24 "Hg1 mi
7:20 am32 °FIce fog.12 mph93%30.24 "Hg1 mi
6:50 am32 °FIce fog.12 mph93%30.21 "Hg1 mi
6:20 am32 °FIce fog.12 mph93%30.21 "Hg1 mi
5:50 am32 °FFog.12 mph100%30.21 "Hg1 mi
Weather by CustomWeather, © 2017

See weather overviewHow to use our weather pages